Regional Weather Roundup
Issued by NWS

Home | Current Version | Previous Version | Graphics & Text | Print | Product List | Glossary On
Versions: 1 2 3 4 5 6 7 8 9 10 11 12 13 14 15 16 17 18 19 20 21 22 23 24 25 26 27 28 29 30 31 32 33 34 35 36 37 38 39 40 41 42 43 44 45 46 47 48 49 50
000
ASUS43 KOAX 011502
RWRNE

WEATHER ROUNDUP FOR NEBRASKA
NATIONAL WEATHER SERVICE OMAHA NE
900 AM CST SUN MAR 01 2015

NOTES: SATELLITE DATA IS BEING USED TO AUGMENT CLOUD COVER ABOVE
       12000 FEET.
       "FAIR" INDICATES FEW OR NO CLOUDS BELOW 12,000 FEET WITH NO
       SIGNIFICANT WEATHER AND/OR OBSTRUCTIONS TO VISIBILITY.

  * THESE STATIONS DO NOT REPORT WEATHER SUCH AS RAIN...SNOW OR FOG.

NEZ001>004-019>022-054>056-011600-
NEBRASKA PANHANDLE

CITY           SKY/WX    TMP DP  RH WIND       PRES   REMARKS
SCOTTSBLUFF    MOSUNNY   20  13  74 W3        30.26R
ALLIANCE       SUNNY     18  11  74 NW3       30.24R
CHADRON        CLOUDY    21  14  74 W9        30.28R WCI  11
KIMBALL        PTSUNNY   17  15  92 NW10      30.17R WCI   4
SIDNEY         SUNNY     19  15  84 N10       30.22R WCI   7
$$

NEZ057>060-069>072-079>082-011600-
SOUTHWEST NEBRASKA

CITY           SKY/WX    TMP DP  RH WIND       PRES   REMARKS
NORTH PLATTE   SUNNY     22  10  60 N8        30.29R WCI  12
IMPERIAL         N/A     20  13  74 N6        30.27R WCI  12
LEXINGTON      SUNNY     21  17  84 NW6       30.30S WCI  14
MCCOOK         CLOUDY    22  17  81 CALM      30.31R HAZE
$$

NEZ005>010-023>029-035>040-094-011600-
NORTH CENTRAL NEBRASKA

CITY           SKY/WX    TMP DP  RH WIND       PRES   REMARKS
VALENTINE      PTSUNNY   20  14  77 W9        30.31R WCI   9
AINSWORTH      CLOUDY    19  14  82 W7        30.31R WCI  10
BROKEN BOW     PTSUNNY   22  12  65 N9        30.30R WCI  12
ORD            CLOUDY    20  13  74 N6        30.32R WCI  12
$$

NEZ041-046>049-061>064-073>077-083>087-011600-
SOUTH CENTRAL NEBRASKA

CITY           SKY/WX    TMP DP  RH WIND       PRES   REMARKS
GRAND ISLAND   SUNNY     22  15  75 NW10      30.35R WCI  11
HASTINGS       SUNNY     22  16  78 NW10      30.32R WCI  11
HEBRON         CLOUDY    23  18  81 W5        30.36S WCI  17
KEARNEY *      SUNNY     21  14  73 N9        30.33R WCI  11
$$

NEZ011>018-030>034-042>045-011600-
NORTHEAST NEBRASKA

CITY           SKY/WX    TMP DP  RH WIND       PRES   REMARKS
NORFOLK        CLOUDY    21  14  74 NW6       30.34R WCI  13
BLAIR          PTSUNNY   21  15  78 W7        30.35R WCI  12
COLUMBUS *     MOSUNNY   21   9  58 N8        30.37R WCI  12
FREMONT        MOSUNNY   22  17  80 NW6       30.36R WCI  15
TEKAMAH        MOSUNNY   21  15  78 NW12      30.38R WCI   9
$$

NEZ050>053-065>068-078-088>093-011600-
SOUTHEAST NEBRASKA

CITY           SKY/WX    TMP DP  RH WIND       PRES   REMARKS
LINCOLN        PTSUNNY   22  16  78 W7        30.39R WCI  13
OMAHA EPPLEY   MOSUNNY   24  15  68 W10       30.38R WCI  14
FALLS CITY     CLOUDY    23  19  85 W3        30.39R
$$

NEZ044-045-051>053-067-011600-
OMAHA AREA

CITY           SKY/WX    TMP DP  RH WIND       PRES   REMARKS
OMAHA EPPLEY   MOSUNNY   24  15  68 W10       30.38R WCI  14
BLAIR          PTSUNNY   21  15  78 W7        30.35R WCI  12
FREMONT        MOSUNNY   22  17  80 NW6       30.36R WCI  15
OFFUTT AFB     MOSUNNY   23  16  73 W6        30.38R WCI  16
$$


USA.gov is the U.S. government's official web portal to all federal, state and local government web resources and services.